Location: Gilevgi
(36.8751°N, 30.0581°E)
Time: 21:51:25
(UTC+00:00)

Cosmos 1538 Rocket - Pass Details

Date: 11 December 2025
Orbit: 748 x 788 km, 74.0° (Epoch: 12 January)

Event Time Altitude Azimuth Distance (km) Brightness Sun altitude
Rises 16:15:27 0° 345° (NNW) 3,254 7.2 -17.8°
Reaches altitude 10° 16:17:51 10° 349° (N) 2,329 6.5 -18.3°
Maximum altitude 16:23:06 63° 70° (ENE) 873 4.0 -19.3°
Drops below altitude 10° 16:28:22 10° 152° (SSE) 2,336 6.4 -20.3°
Sets 16:30:47 0° 155° (SSE) 3,263 7.1 -20.8°
